Location: Stockholm
(59.3330°N, 18.0500°E)
Time: 14:36:43
(UTC+01:00)

Envisat - Pass Details

Date: 05 December 2022
Orbit: 763 x 765 km, 98.2° (Epoch: 29 January)

Event Time Altitude Azimuth Distance (km) Brightness Sun altitude
Rises 04:01:23 0° 17° (NNE) 3,250 6.6 -31.4°
Reaches altitude 10° 04:03:44 10° 22° (NNE) 2,319 5.8 -31.1°
Enters shadow 04:08:27 58° 83° (E) 897 3.5 -30.5°
